Time,TemperatureF,DewpointF,PressureIn,WindDirection,WindDirectionDegrees,WindSpeedMPH,WindSpeedGustMPH,Humidity,HourlyPrecipIn,Conditions,Clouds,dailyrainin,SoftwareType,DateUTC
2013-09-30 00:02:00,43.9,17.2,31.82,North,0,2.0,11.0,34,0.00,,,0.00,meteohub,2013-09-30 06:02:00,
2013-09-30 00:07:00,43.9,17.2,31.82,North,0,2.0,11.0,34,0.00,,,0.00,meteohub,2013-09-30 06:07:00,
2013-09-30 00:12:00,44.4,17.1,31.82,SW,225,4.0,4.0,33,0.00,,,0.00,meteohub,2013-09-30 06:12:00,
2013-09-30 00:17:00,44.1,16.2,31.82,SW,225,4.0,4.0,32,0.00,,,0.00,meteohub,2013-09-30 06:17:00,
2013-09-30 00:22:00,44.1,16.7,31.82,SW,225,4.0,4.0,33,0.00,,,0.00,meteohub,2013-09-30 06:22:00,
2013-09-30 00:27:00,43.2,16.7,31.82,East,90,0.0,4.0,34,0.00,,,0.00,meteohub,2013-09-30 06:27:00,
2013-09-30 00:32:00,42.4,16.7,31.82,South,180,3.0,4.0,35,0.00,,,0.00,meteohub,2013-09-30 06:32:00,
2013-09-30 00:37:00,41.7,17.4,31.82,NW,315,1.0,4.0,37,0.00,,,0.00,meteohub,2013-09-30 06:37:00,
2013-09-30 00:42:00,41.4,16.3,31.82,West,270,3.0,3.0,36,0.00,,,0.00,meteohub,2013-09-30 06:42:00,
2013-09-30 00:47:00,41.0,17.4,31.82,SW,225,2.0,3.0,38,0.00,,,0.00,meteohub,2013-09-30 06:47:00,
2013-09-30 00:52:00,40.8,18.3,31.82,SW,225,2.0,3.0,40,0.00,,,0.00,meteohub,2013-09-30 06:52:00,
2013-09-30 00:57:00,40.3,19.0,31.82,SW,225,2.0,3.0,42,0.00,,,0.00,meteohub,2013-09-30 06:57:00,
2013-09-30 01:02:00,39.9,19.8,31.82,West,270,3.0,3.0,44,0.00,,,0.00,meteohub,2013-09-30 07:02:00,
2013-09-30 01:07:00,40.1,19.9,31.82,West,270,4.0,4.0,44,0.00,,,0.00,meteohub,2013-09-30 07:07:00,
2013-09-30 01:12:00,40.5,20.3,31.82,West,270,4.0,5.0,44,0.00,,,0.00,meteohub,2013-09-30 07:12:00,
2013-09-30 01:17:00,40.8,20.1,31.82,West,270,3.0,5.0,43,0.00,,,0.00,meteohub,2013-09-30 07:17:00,
2013-09-30 01:22:00,41.4,18.9,31.82,NW,315,3.0,5.0,40,0.00,,,0.00,meteohub,2013-09-30 07:22:00,
2013-09-30 01:27:00,41.7,18.5,31.82,West,270,7.0,7.0,39,0.00,,,0.00,meteohub,2013-09-30 07:27:00,
2013-09-30 01:32:00,42.1,18.9,31.83,West,270,5.0,7.0,39,0.00,,,0.00,meteohub,2013-09-30 07:32:00,
2013-09-30 01:37:00,42.4,18.0,31.83,West,270,4.0,7.0,37,0.00,,,0.00,meteohub,2013-09-30 07:37:00,
2013-09-30 01:42:00,42.6,18.1,31.82,West,270,4.0,7.0,37,0.00,,,0.00,meteohub,2013-09-30 07:42:00,
2013-09-30 01:47:00,42.6,18.1,31.82,NW,315,4.0,7.0,37,0.00,,,0.00,meteohub,2013-09-30 07:47:00,
2013-09-30 01:52:00,42.8,17.6,31.82,NW,315,6.0,7.0,36,0.00,,,0.00,meteohub,2013-09-30 07:52:00,
2013-09-30 01:57:00,42.4,18.7,31.82,West,270,7.0,7.0,38,0.00,,,0.00,meteohub,2013-09-30 07:57:00,
2013-09-30 02:02:00,42.3,18.5,31.82,West,270,3.0,7.0,38,0.00,,,0.00,meteohub,2013-09-30 08:02:00,
2013-09-30 02:07:00,42.3,18.5,31.83,West,270,3.0,7.0,38,0.00,,,0.00,meteohub,2013-09-30 08:07:00,
2013-09-30 02:12:00,41.7,19.2,31.82,West,270,3.0,7.0,40,0.00,,,0.00,meteohub,2013-09-30 08:12:00,
2013-09-30 02:17:00,41.5,19.6,31.82,NW,315,4.0,5.0,41,0.00,,,0.00,meteohub,2013-09-30 08:17:00,
2013-09-30 02:22:00,41.4,19.4,31.82,West,270,2.0,5.0,41,0.00,,,0.00,meteohub,2013-09-30 08:22:00,
2013-09-30 02:27:00,41.2,19.8,31.82,East,90,2.0,5.0,42,0.00,,,0.00,meteohub,2013-09-30 08:27:00,
2013-09-30 02:32:00,40.5,20.3,31.82,SE,135,2.0,4.0,44,0.00,,,0.00,meteohub,2013-09-30 08:32:00,
2013-09-30 02:37:00,40.1,19.9,31.82,SE,135,4.0,4.0,44,0.00,,,0.00,meteohub,2013-09-30 08:37:00,
2013-09-30 02:42:00,39.7,19.6,31.82,West,270,2.0,4.0,44,0.00,,,0.00,meteohub,2013-09-30 08:42:00,
2013-09-30 02:47:00,39.6,19.4,31.82,SSW,203,2.0,4.0,44,0.00,,,0.00,meteohub,2013-09-30 08:47:00,
2013-09-30 02:52:00,39.7,19.6,31.82,SW,225,4.0,4.0,44,0.00,,,0.00,meteohub,2013-09-30 08:52:00,
2013-09-30 02:57:00,39.7,19.6,31.82,SW,225,1.0,4.0,44,0.00,,,0.00,meteohub,2013-09-30 08:57:00,
2013-09-30 03:02:00,39.4,19.8,31.82,SW,225,4.0,4.0,45,0.00,,,0.00,meteohub,2013-09-30 09:02:00,
2013-09-30 03:07:00,39.4,19.8,31.82,SW,225,2.0,4.0,45,0.00,,,0.00,meteohub,2013-09-30 09:07:00,
2013-09-30 03:12:00,39.4,19.8,31.81,SW,225,2.0,4.0,45,0.00,,,0.00,meteohub,2013-09-30 09:12:00,
2013-09-30 03:17:00,39.7,20.1,31.82,West,270,6.0,6.0,45,0.00,,,0.00,meteohub,2013-09-30 09:17:00,
2013-09-30 03:22:00,41.0,20.3,31.81,East,90,2.0,9.0,43,0.00,,,0.00,meteohub,2013-09-30 09:22:00,
2013-09-30 03:27:00,41.5,20.7,31.81,SW,225,2.0,9.0,43,0.00,,,0.00,meteohub,2013-09-30 09:27:00,
2013-09-30 03:32:00,41.4,19.9,31.81,NW,315,4.0,9.0,42,0.00,,,0.00,meteohub,2013-09-30 09:32:00,
2013-09-30 03:37:00,41.2,20.3,31.81,North,0,2.0,4.0,43,0.00,,,0.00,meteohub,2013-09-30 09:37:00,
2013-09-30 03:42:00,40.5,20.3,31.81,NW,315,4.0,4.0,44,0.00,,,0.00,meteohub,2013-09-30 09:42:00,
2013-09-30 03:47:00,40.8,20.7,31.81,SW,225,2.0,4.0,44,0.00,,,0.00,meteohub,2013-09-30 09:47:00,
2013-09-30 03:52:00,40.8,20.7,31.81,NW,315,2.0,4.0,44,0.00,,,0.00,meteohub,2013-09-30 09:52:00,
2013-09-30 03:57:00,40.1,19.9,31.81,West,270,3.0,4.0,44,0.00,,,0.00,meteohub,2013-09-30 09:57:00,
2013-09-30 04:03:00,39.9,19.8,31.81,NW,315,3.0,4.0,44,0.00,,,0.00,meteohub,2013-09-30 10:03:00,
2013-09-30 04:08:00,40.8,20.7,31.81,NW,315,3.0,4.0,44,0.00,,,0.00,meteohub,2013-09-30 10:08:00,
2013-09-30 04:13:00,41.4,20.5,31.81,NW,315,2.0,4.0,43,0.00,,,0.00,meteohub,2013-09-30 10:13:00,
2013-09-30 04:18:00,41.5,20.7,31.81,NW,315,2.0,3.0,43,0.00,,,0.00,meteohub,2013-09-30 10:18:00,
2013-09-30 04:23:00,41.4,20.5,31.81,South,180,1.0,3.0,43,0.00,,,0.00,meteohub,2013-09-30 10:23:00,
2013-09-30 04:28:00,41.0,20.3,31.81,SW,225,2.0,3.0,43,0.00,,,0.00,meteohub,2013-09-30 10:28:00,
2013-09-30 04:34:00,40.5,20.3,31.81,SW,225,2.0,2.0,44,0.00,,,0.00,meteohub,2013-09-30 10:34:00,
2013-09-30 04:39:00,40.1,19.9,31.81,SE,135,2.0,2.0,44,0.00,,,0.00,meteohub,2013-09-30 10:39:00,
2013-09-30 04:44:00,39.7,19.6,31.80,SW,225,2.0,2.0,44,0.00,,,0.00,meteohub,2013-09-30 10:44:00,
2013-09-30 04:49:00,39.2,19.6,31.80,SW,225,2.0,2.0,45,0.00,,,0.00,meteohub,2013-09-30 10:49:00,
2013-09-30 04:54:00,38.8,19.8,31.80,SW,225,1.0,2.0,46,0.00,,,0.00,meteohub,2013-09-30 10:54:00,
2013-09-30 04:59:00,38.5,19.6,31.80,West,270,2.0,2.0,46,0.00,,,0.00,meteohub,2013-09-30 10:59:00,
2013-09-30 05:05:00,38.3,19.4,31.80,SW,225,2.0,2.0,46,0.00,,,0.00,meteohub,2013-09-30 11:05:00,
2013-09-30 05:10:00,38.1,19.6,31.80,SW,225,2.0,3.0,47,0.00,,,0.00,meteohub,2013-09-30 11:10:00,
2013-09-30 05:15:00,37.8,19.4,31.80,SW,225,2.0,3.0,47,0.00,,,0.00,meteohub,2013-09-30 11:15:00,
2013-09-30 05:20:00,37.6,19.6,31.80,West,270,2.0,2.0,48,0.00,,,0.00,meteohub,2013-09-30 11:20:00,
2013-09-30 05:25:00,37.2,17.8,31.80,West,270,3.0,3.0,45,0.00,,,0.00,meteohub,2013-09-30 11:25:00,
2013-09-30 05:30:00,37.2,19.4,31.80,West,270,2.0,4.0,48,0.00,,,0.00,meteohub,2013-09-30 11:30:00,
2013-09-30 05:36:00,37.4,21.4,31.80,West,270,3.0,4.0,52,0.00,,,0.00,meteohub,2013-09-30 11:36:00,
2013-09-30 05:41:00,37.4,20.8,31.79,West,270,2.0,4.0,51,0.00,,,0.00,meteohub,2013-09-30 11:41:00,
2013-09-30 05:46:00,37.4,20.5,31.80,SW,225,2.0,4.0,50,0.00,,,0.00,meteohub,2013-09-30 11:46:00,
2013-09-30 05:51:00,37.4,20.5,31.80,West,270,2.0,4.0,50,0.00,,,0.00,meteohub,2013-09-30 11:51:00,
2013-09-30 05:56:00,37.2,18.3,31.80,SW,225,2.0,3.0,46,0.00,,,0.00,meteohub,2013-09-30 11:56:00,
2013-09-30 06:02:00,37.2,18.3,31.80,West,270,2.0,2.0,46,0.00,,,0.00,meteohub,2013-09-30 12:02:00,
2013-09-30 06:07:00,37.2,18.3,31.80,West,270,2.0,2.0,46,0.00,,,0.00,meteohub,2013-09-30 12:07:00,
2013-09-30 06:12:00,37.2,18.9,31.80,SW,225,2.0,2.0,47,0.00,,,0.00,meteohub,2013-09-30 12:12:00,
2013-09-30 06:17:00,36.9,18.5,31.80,SW,225,2.0,2.0,47,0.00,,,0.00,meteohub,2013-09-30 12:17:00,
2013-09-30 06:22:00,36.7,18.3,31.80,WSW,248,2.0,2.0,47,0.00,,,0.00,meteohub,2013-09-30 12:22:00,
2013-09-30 06:27:00,36.5,18.7,31.80,West,270,3.0,3.0,48,0.00,,,0.00,meteohub,2013-09-30 12:27:00,
2013-09-30 06:32:00,36.3,19.0,31.80,West,270,3.0,3.0,49,0.00,,,0.00,meteohub,2013-09-30 12:32:00,
2013-09-30 06:37:00,36.3,19.0,31.80,SW,225,2.0,3.0,49,0.00,,,0.00,meteohub,2013-09-30 12:37:00,
2013-09-30 06:42:00,36.1,18.9,31.80,SW,225,2.0,3.0,49,0.00,,,0.00,meteohub,2013-09-30 12:42:00,
2013-09-30 06:47:00,36.0,18.7,31.80,SW,225,2.0,3.0,49,0.00,,,0.00,meteohub,2013-09-30 12:47:00,
2013-09-30 06:52:00,35.8,18.5,31.80,SW,225,2.0,2.0,49,0.00,,,0.00,meteohub,2013-09-30 12:52:00,
2013-09-30 06:57:00,35.8,19.0,31.80,SW,225,3.0,3.0,50,0.00,,,0.00,meteohub,2013-09-30 12:57:00,
2013-09-30 07:02:00,36.0,19.6,31.80,SW,225,2.0,3.0,51,0.00,,,0.00,meteohub,2013-09-30 13:02:00,
2013-09-30 07:07:00,36.1,19.2,31.80,West,270,3.0,3.0,50,0.00,,,0.00,meteohub,2013-09-30 13:07:00,
2013-09-30 07:12:00,36.3,19.4,31.81,NW,315,2.0,3.0,50,0.00,,,0.00,meteohub,2013-09-30 13:12:00,
2013-09-30 07:17:00,36.7,19.8,31.80,SW,225,2.0,3.0,50,0.00,,,0.00,meteohub,2013-09-30 13:17:00,
2013-09-30 07:22:00,37.0,19.6,31.80,SW,225,2.0,3.0,49,0.00,,,0.00,meteohub,2013-09-30 13:22:00,
2013-09-30 07:27:00,37.0,20.1,31.80,North,0,1.0,3.0,50,0.00,,,0.00,meteohub,2013-09-30 13:27:00,
2013-09-30 07:32:00,36.9,19.4,31.80,SW,225,2.0,3.0,49,0.00,,,0.00,meteohub,2013-09-30 13:32:00,
2013-09-30 07:37:00,36.7,19.4,31.81,SW,225,2.0,3.0,49,0.00,,,0.00,meteohub,2013-09-30 13:37:00,
2013-09-30 07:42:00,36.5,19.6,31.80,West,270,2.0,3.0,50,0.00,,,0.00,meteohub,2013-09-30 13:42:00,
2013-09-30 07:47:00,36.9,20.5,31.80,South,180,0.0,2.0,51,0.00,,,0.00,meteohub,2013-09-30 13:47:00,
2013-09-30 07:52:00,37.2,20.8,31.80,North,0,2.0,2.0,51,0.00,,,0.00,meteohub,2013-09-30 13:52:00,
2013-09-30 07:57:00,37.4,22.6,31.80,NE,45,2.0,2.0,55,0.00,,,0.00,meteohub,2013-09-30 13:57:00,
2013-09-30 08:02:00,37.0,20.7,31.80,SW,225,2.0,2.0,51,0.00,,,0.00,meteohub,2013-09-30 14:02:00,
2013-09-30 08:07:00,37.0,20.7,31.80,SW,225,2.0,2.0,51,0.00,,,0.00,meteohub,2013-09-30 14:07:00,
2013-09-30 08:12:00,36.0,21.0,31.80,NW,315,1.0,2.0,54,0.00,,,0.00,meteohub,2013-09-30 14:12:00,
2013-09-30 08:17:00,36.0,21.0,31.79,West,270,2.0,2.0,54,0.00,,,0.00,meteohub,2013-09-30 14:17:00,
2013-09-30 08:22:00,36.5,21.4,31.79,North,0,2.0,2.0,54,0.00,,,0.00,meteohub,2013-09-30 14:22:00,
2013-09-30 08:27:00,37.4,24.4,31.79,SW,225,2.0,2.0,59,0.00,,,0.00,meteohub,2013-09-30 14:27:00,
2013-09-30 08:32:00,38.3,24.8,31.79,NW,315,1.0,2.0,58,0.00,,,0.00,meteohub,2013-09-30 14:32:00,
2013-09-30 08:37:00,39.9,25.5,31.79,North,0,2.0,2.0,56,0.00,,,0.00,meteohub,2013-09-30 14:37:00,
2013-09-30 08:42:00,42.1,26.6,31.79,NE,45,2.0,2.0,54,0.00,,,0.00,meteohub,2013-09-30 14:42:00,
2013-09-30 08:47:00,43.3,27.0,31.79,West,270,2.0,2.0,52,0.00,,,0.00,meteohub,2013-09-30 14:47:00,
2013-09-30 08:52:00,44.4,27.9,31.79,NE,45,2.0,2.0,52,0.00,,,0.00,meteohub,2013-09-30 14:52:00,
2013-09-30 08:57:00,45.0,27.0,31.79,East,90,2.0,3.0,49,0.00,,,0.00,meteohub,2013-09-30 14:57:00,
2013-09-30 09:02:00,45.3,26.8,31.79,NE,45,3.0,4.0,48,0.00,,,0.00,meteohub,2013-09-30 15:02:00,
2013-09-30 09:07:00,46.0,27.0,31.79,NE,45,4.0,4.0,47,0.00,,,0.00,meteohub,2013-09-30 15:07:00,
2013-09-30 09:12:00,46.6,27.5,31.79,NE,45,3.0,4.0,47,0.00,,,0.00,meteohub,2013-09-30 15:12:00,
2013-09-30 09:17:00,46.8,27.7,31.79,NE,45,2.0,4.0,47,0.00,,,0.00,meteohub,2013-09-30 15:17:00,
2013-09-30 09:22:00,47.8,28.6,31.79,East,90,3.0,4.0,47,0.00,,,0.00,meteohub,2013-09-30 15:22:00,
2013-09-30 09:27:00,49.5,29.5,31.79,NE,45,2.0,4.0,46,0.00,,,0.00,meteohub,2013-09-30 15:27:00,
2013-09-30 09:32:00,50.7,29.7,31.79,NE,45,3.0,4.0,44,0.00,,,0.00,meteohub,2013-09-30 15:32:00,
2013-09-30 09:37:00,51.8,29.5,31.79,NE,45,3.0,3.0,42,0.00,,,0.00,meteohub,2013-09-30 15:37:00,
2013-09-30 09:42:00,52.9,29.3,31.79,East,90,2.0,4.0,40,0.00,,,0.00,meteohub,2013-09-30 15:42:00,
2013-09-30 09:47:00,53.8,28.0,31.79,NE,45,3.0,4.0,37,0.00,,,0.00,meteohub,2013-09-30 15:47:00,
2013-09-30 09:52:00,54.3,27.3,31.78,NE,45,4.0,4.0,35,0.00,,,0.00,meteohub,2013-09-30 15:52:00,
2013-09-30 09:57:00,54.9,27.7,31.78,North,0,3.0,4.0,35,0.00,,,0.00,meteohub,2013-09-30 15:57:00,
2013-09-30 10:02:00,55.0,27.1,31.79,NE,45,4.0,4.0,34,0.00,,,0.00,meteohub,2013-09-30 16:02:00,
2013-09-30 10:07:00,55.0,27.1,31.78,NE,45,4.0,4.0,34,0.00,,,0.00,meteohub,2013-09-30 16:07:00,
2013-09-30 10:12:00,56.5,29.1,31.78,West,270,2.0,4.0,35,0.00,,,0.00,meteohub,2013-09-30 16:12:00,
2013-09-30 10:17:00,57.4,29.3,31.78,East,90,2.0,4.0,34,0.00,,,0.00,meteohub,2013-09-30 16:17:00,
2013-09-30 10:22:00,58.6,30.4,31.78,NW,315,2.0,4.0,34,0.00,,,0.00,meteohub,2013-09-30 16:22:00,
2013-09-30 10:27:00,59.0,29.1,31.78,East,90,3.0,4.0,32,0.00,,,0.00,meteohub,2013-09-30 16:27:00,
2013-09-30 10:32:00,59.2,29.3,31.78,NE,45,3.0,4.0,32,0.00,,,0.00,meteohub,2013-09-30 16:32:00,
2013-09-30 10:37:00,59.7,29.8,31.78,North,0,4.0,4.0,32,0.00,,,0.00,meteohub,2013-09-30 16:37:00,
2013-09-30 10:42:00,60.1,30.2,31.78,West,270,2.0,4.0,32,0.00,,,0.00,meteohub,2013-09-30 16:42:00,
2013-09-30 10:47:00,60.6,29.8,31.78,North,0,5.0,5.0,31,0.00,,,0.00,meteohub,2013-09-30 16:47:00,
2013-09-30 10:52:00,60.8,29.1,31.78,East,90,2.0,5.0,30,0.00,,,0.00,meteohub,2013-09-30 16:52:00,
2013-09-30 10:57:00,61.5,29.8,31.78,West,270,3.0,5.0,30,0.00,,,0.00,meteohub,2013-09-30 16:57:00,
2013-09-30 11:02:00,62.1,30.2,31.78,NE,45,2.0,5.0,30,0.00,,,0.00,meteohub,2013-09-30 17:02:00,
2013-09-30 11:07:00,62.6,29.1,31.77,NE,45,3.0,7.0,28,0.00,,,0.00,meteohub,2013-09-30 17:07:00,
2013-09-30 11:12:00,62.6,29.1,31.77,East,90,4.0,7.0,28,0.00,,,0.00,meteohub,2013-09-30 17:12:00,
2013-09-30 11:17:00,62.8,29.1,31.77,South,180,4.0,7.0,28,0.00,,,0.00,meteohub,2013-09-30 17:17:00,
2013-09-30 11:22:00,63.5,30.7,31.77,NE,45,5.0,6.0,29,0.00,,,0.00,meteohub,2013-09-30 17:22:00,
2013-09-30 11:27:00,63.7,30.0,31.77,NE,45,4.0,5.0,28,0.00,,,0.00,meteohub,2013-09-30 17:27:00,
2013-09-30 11:32:00,63.7,30.0,31.76,North,0,3.0,5.0,28,0.00,,,0.00,meteohub,2013-09-30 17:32:00,
2013-09-30 11:37:00,64.0,30.2,31.76,East,90,2.0,5.0,28,0.00,,,0.00,meteohub,2013-09-30 17:37:00,
2013-09-30 11:42:00,64.4,30.6,31.76,NW,315,3.0,5.0,28,0.00,,,0.00,meteohub,2013-09-30 17:42:00,
2013-09-30 11:47:00,64.9,31.1,31.76,North,0,4.0,5.0,28,0.00,,,0.00,meteohub,2013-09-30 17:47:00,
2013-09-30 11:52:00,64.9,31.1,31.76,East,90,4.0,5.0,28,0.00,,,0.00,meteohub,2013-09-30 17:52:00,
2013-09-30 11:57:00,65.1,31.3,31.75,West,270,4.0,7.0,28,0.00,,,0.00,meteohub,2013-09-30 17:57:00,
2013-09-30 12:02:00,65.7,31.6,31.75,SW,225,5.0,7.0,28,0.00,,,0.00,meteohub,2013-09-30 18:02:00,
2013-09-30 12:07:00,65.7,31.6,31.75,SW,225,5.0,7.0,28,0.00,,,0.00,meteohub,2013-09-30 18:07:00,
2013-09-30 12:12:00,67.6,32.5,31.75,East,90,6.0,6.0,27,0.00,,,0.00,meteohub,2013-09-30 18:12:00,
2013-09-30 12:17:00,68.2,32.0,31.75,North,0,5.0,7.0,26,0.00,,,0.00,meteohub,2013-09-30 18:17:00,
2013-09-30 12:22:00,68.7,31.5,31.75,North,0,5.0,7.0,25,0.00,,,0.00,meteohub,2013-09-30 18:22:00,
2013-09-30 12:27:00,68.9,30.6,31.75,NW,315,4.0,7.0,24,0.00,,,0.00,meteohub,2013-09-30 18:27:00,
2013-09-30 12:32:00,69.4,30.0,31.75,South,180,5.0,7.0,23,0.00,,,0.00,meteohub,2013-09-30 18:32:00,
2013-09-30 12:37:00,69.6,30.2,31.74,NNE,23,8.0,8.0,23,0.00,,,0.00,meteohub,2013-09-30 18:37:00,
2013-09-30 12:42:00,69.4,30.0,31.74,NW,315,8.0,8.0,23,0.00,,,0.00,meteohub,2013-09-30 18:42:00,
2013-09-30 12:47:00,69.8,30.4,31.74,SW,225,7.0,8.0,23,0.00,,,0.00,meteohub,2013-09-30 18:47:00,
2013-09-30 12:52:00,70.7,30.0,31.74,NW,315,11.0,11.0,22,0.00,,,0.00,meteohub,2013-09-30 18:52:00,
2013-09-30 12:57:00,70.5,28.8,31.75,SW,225,13.0,13.0,21,0.00,,,0.00,meteohub,2013-09-30 18:57:00,
2013-09-30 13:02:00,70.2,28.4,31.75,South,180,5.0,13.0,21,0.00,,,0.00,meteohub,2013-09-30 19:02:00,
2013-09-30 13:07:00,69.6,27.9,31.75,West,270,11.0,13.0,21,0.00,,,0.00,meteohub,2013-09-30 19:07:00,
2013-09-30 13:12:00,69.8,27.0,31.75,WSW,248,4.0,13.0,20,0.00,,,0.00,meteohub,2013-09-30 19:12:00,
2013-09-30 13:17:00,70.0,28.2,31.75,NW,315,8.0,12.0,21,0.00,,,0.00,meteohub,2013-09-30 19:17:00,
2013-09-30 13:22:00,70.0,25.9,31.75,SSW,203,8.0,17.0,19,0.00,,,0.00,meteohub,2013-09-30 19:22:00,
2013-09-30 13:27:00,69.3,27.7,31.75,East,90,8.0,17.0,21,0.00,,,0.00,meteohub,2013-09-30 19:27:00,
2013-09-30 13:32:00,69.4,27.9,31.74,SE,135,5.0,17.0,21,0.00,,,0.00,meteohub,2013-09-30 19:32:00,
2013-09-30 13:37:00,70.0,27.1,31.74,West,270,8.0,11.0,20,0.00,,,0.00,meteohub,2013-09-30 19:37:00,
2013-09-30 13:42:00,70.0,27.1,31.74,West,270,4.0,10.0,20,0.00,,,0.00,meteohub,2013-09-30 19:42:00,
2013-09-30 13:47:00,69.6,27.9,31.74,SW,225,7.0,11.0,21,0.00,,,0.00,meteohub,2013-09-30 19:47:00,
2013-09-30 13:52:00,69.3,27.7,31.74,North,0,4.0,16.0,21,0.00,,,0.00,meteohub,2013-09-30 19:52:00,
2013-09-30 13:57:00,69.3,28.8,31.74,NW,315,8.0,16.0,22,0.00,,,0.00,meteohub,2013-09-30 19:57:00,
2013-09-30 14:02:00,69.3,28.8,31.74,SW,225,4.0,16.0,22,0.00,,,0.00,meteohub,2013-09-30 20:02:00,
2013-09-30 14:07:00,69.3,28.8,31.74,SW,225,4.0,11.0,22,0.00,,,0.00,meteohub,2013-09-30 20:07:00,
2013-09-30 14:12:00,68.2,27.9,31.74,WNW,293,6.0,8.0,22,0.00,,,0.00,meteohub,2013-09-30 20:12:00,
2013-09-30 14:17:00,68.0,27.7,31.74,NNW,338,5.0,8.0,22,0.00,,,0.00,meteohub,2013-09-30 20:17:00,
2013-09-30 14:22:00,68.2,27.9,31.74,South,180,5.0,8.0,22,0.00,,,0.00,meteohub,2013-09-30 20:22:00,
2013-09-30 14:27:00,68.0,27.7,31.74,NW,315,3.0,8.0,22,0.00,,,0.00,meteohub,2013-09-30 20:27:00,
2013-09-30 14:32:00,68.4,28.0,31.74,West,270,5.0,8.0,22,0.00,,,0.00,meteohub,2013-09-30 20:32:00,
2013-09-30 14:37:00,67.3,27.1,31.73,NE,45,8.0,8.0,22,0.00,,,0.00,meteohub,2013-09-30 20:37:00,
2013-09-30 14:42:00,66.4,28.4,31.73,NW,315,5.0,8.0,24,0.00,,,0.00,meteohub,2013-09-30 20:42:00,
2013-09-30 14:47:00,67.1,29.1,31.74,West,270,5.0,12.0,24,0.00,,,0.00,meteohub,2013-09-30 20:47:00,
2013-09-30 14:52:00,68.0,28.8,31.73,SW,225,7.0,12.0,23,0.00,,,0.00,meteohub,2013-09-30 20:52:00,
2013-09-30 14:57:00,68.7,28.4,31.73,NW,315,5.0,12.0,22,0.00,,,0.00,meteohub,2013-09-30 20:57:00,
2013-09-30 15:02:00,69.4,27.9,31.73,NW,315,7.0,9.0,21,0.00,,,0.00,meteohub,2013-09-30 21:02:00,
2013-09-30 15:07:00,69.3,26.4,31.73,South,180,8.0,9.0,20,0.00,,,0.00,meteohub,2013-09-30 21:07:00,
2013-09-30 15:12:00,69.3,26.4,31.74,SSW,203,10.0,11.0,20,0.00,,,0.00,meteohub,2013-09-30 21:12:00,
2013-09-30 15:17:00,68.7,26.1,31.73,North,0,3.0,12.0,20,0.00,,,0.00,meteohub,2013-09-30 21:17:00,
2013-09-30 15:22:00,68.9,27.3,31.73,NW,315,8.0,12.0,21,0.00,,,0.00,meteohub,2013-09-30 21:22:00,
2013-09-30 15:27:00,69.1,26.2,31.73,NW,315,4.0,12.0,20,0.00,,,0.00,meteohub,2013-09-30 21:27:00,
2013-09-30 15:32:00,69.3,26.4,31.73,East,90,3.0,8.0,20,0.00,,,0.00,meteohub,2013-09-30 21:32:00,
2013-09-30 15:37:00,69.4,26.6,31.73,West,270,11.0,11.0,20,0.00,,,0.00,meteohub,2013-09-30 21:37:00,
2013-09-30 15:42:00,69.4,26.6,31.73,SW,225,3.0,11.0,20,0.00,,,0.00,meteohub,2013-09-30 21:42:00,
2013-09-30 15:47:00,69.8,25.7,31.73,NW,315,12.0,12.0,19,0.00,,,0.00,meteohub,2013-09-30 21:47:00,
2013-09-30 15:52:00,69.6,25.5,31.73,West,270,6.0,12.0,19,0.00,,,0.00,meteohub,2013-09-30 21:52:00,
2013-09-30 15:57:00,69.3,25.2,31.73,West,270,6.0,12.0,19,0.00,,,0.00,meteohub,2013-09-30 21:57:00,
2013-09-30 16:02:00,69.3,25.2,31.73,WSW,248,4.0,12.0,19,0.00,,,0.00,meteohub,2013-09-30 22:02:00,
2013-09-30 16:07:00,69.3,25.2,31.73,WSW,248,4.0,9.0,19,0.00,,,0.00,meteohub,2013-09-30 22:07:00,
2013-09-30 16:12:00,69.1,25.2,31.73,West,270,8.0,9.0,19,0.00,,,0.00,meteohub,2013-09-30 22:12:00,
2013-09-30 16:17:00,68.9,25.0,31.73,SW,225,6.0,10.0,19,0.00,,,0.00,meteohub,2013-09-30 22:17:00,
2013-09-30 16:22:00,69.1,27.5,31.73,NE,45,4.0,10.0,21,0.00,,,0.00,meteohub,2013-09-30 22:22:00,
2013-09-30 16:27:00,69.1,26.2,31.73,NW,315,8.0,10.0,20,0.00,,,0.00,meteohub,2013-09-30 22:27:00,
2013-09-30 16:32:00,68.7,24.8,31.74,NW,315,7.0,9.0,19,0.00,,,0.00,meteohub,2013-09-30 22:32:00,
2013-09-30 16:37:00,68.4,24.4,31.74,NW,315,7.0,9.0,19,0.00,,,0.00,meteohub,2013-09-30 22:37:00,
2013-09-30 16:42:00,68.0,25.3,31.73,West,270,14.0,14.0,20,0.00,,,0.00,meteohub,2013-09-30 22:42:00,
2013-09-30 16:47:00,67.6,26.2,31.74,SW,225,8.0,15.0,21,0.00,,,0.00,meteohub,2013-09-30 22:47:00,
2013-09-30 16:52:00,67.5,26.2,31.74,West,270,4.0,15.0,21,0.00,,,0.00,meteohub,2013-09-30 22:52:00,
2013-09-30 16:57:00,67.5,25.0,31.74,SW,225,11.0,15.0,20,0.00,,,0.00,meteohub,2013-09-30 22:57:00,
2013-09-30 17:02:00,67.1,24.6,31.74,West,270,5.0,11.0,20,0.00,,,0.00,meteohub,2013-09-30 23:02:00,
2013-09-30 17:07:00,66.6,24.3,31.74,West,270,4.0,11.0,20,0.00,,,0.00,meteohub,2013-09-30 23:07:00,
2013-09-30 17:12:00,66.0,23.7,31.74,NNW,338,4.0,11.0,20,0.00,,,0.00,meteohub,2013-09-30 23:12:00,
2013-09-30 17:17:00,66.0,25.0,31.74,NW,315,2.0,10.0,21,0.00,,,0.00,meteohub,2013-09-30 23:17:00,
2013-09-30 17:22:00,66.0,26.1,31.74,NW,315,8.0,10.0,22,0.00,,,0.00,meteohub,2013-09-30 23:22:00,
2013-09-30 17:27:00,65.7,24.6,31.75,SW,225,4.0,10.0,21,0.00,,,0.00,meteohub,2013-09-30 23:27:00,
2013-09-30 17:32:00,65.1,24.3,31.74,NW,315,7.0,8.0,21,0.00,,,0.00,meteohub,2013-09-30 23:32:00,
2013-09-30 17:37:00,64.0,23.4,31.74,NW,315,2.0,8.0,21,0.00,,,0.00,meteohub,2013-09-30 23:37:00,
2013-09-30 17:42:00,63.3,23.9,31.75,NW,315,4.0,7.0,22,0.00,,,0.00,meteohub,2013-09-30 23:42:00,
2013-09-30 17:47:00,62.8,23.4,31.75,WNW,293,6.0,7.0,22,0.00,,,0.00,meteohub,2013-09-30 23:47:00,
2013-09-30 17:52:00,62.2,23.9,31.75,West,270,3.0,7.0,23,0.00,,,0.00,meteohub,2013-09-30 23:52:00,
2013-09-30 17:57:00,61.7,23.5,31.75,NW,315,2.0,7.0,23,0.00,,,0.00,meteohub,2013-09-30 23:57:00,
2013-09-30 18:02:00,61.3,23.2,31.75,West,270,3.0,7.0,23,0.00,,,0.00,meteohub,2013-10-01 00:02:00,
2013-09-30 18:07:00,61.3,23.2,31.75,West,270,3.0,4.0,23,0.00,,,0.00,meteohub,2013-10-01 00:07:00,
2013-09-30 18:12:00,59.9,23.9,31.75,SW,225,0.0,4.0,25,0.00,,,0.00,meteohub,2013-10-01 00:12:00,
2013-09-30 18:17:00,59.2,24.3,31.75,North,0,0.0,3.0,26,0.00,,,0.00,meteohub,2013-10-01 00:17:00,
2013-09-30 18:22:00,58.3,25.3,31.75,North,0,0.0,3.0,28,0.00,,,0.00,meteohub,2013-10-01 00:22:00,
2013-09-30 18:27:00,57.2,25.2,31.75,NW,315,2.0,2.0,29,0.00,,,0.00,meteohub,2013-10-01 00:27:00,
2013-09-30 18:32:00,56.3,25.3,31.75,West,270,2.0,2.0,30,0.00,,,0.00,meteohub,2013-10-01 00:32:00,
2013-09-30 18:37:00,55.6,24.6,31.75,West,270,3.0,3.0,30,0.00,,,0.00,meteohub,2013-10-01 00:37:00,
2013-09-30 18:42:00,55.0,25.0,31.75,NW,315,3.0,3.0,31,0.00,,,0.00,meteohub,2013-10-01 00:42:00,
2013-09-30 18:47:00,54.5,24.4,31.75,West,270,1.0,4.0,31,0.00,,,0.00,meteohub,2013-10-01 00:47:00,
2013-09-30 18:52:00,54.0,24.1,31.75,SW,225,2.0,4.0,31,0.00,,,0.00,meteohub,2013-10-01 00:52:00,
2013-09-30 18:57:00,52.9,25.3,31.75,SW,225,2.0,4.0,34,0.00,,,0.00,meteohub,2013-10-01 00:57:00,
2013-09-30 19:02:00,51.8,24.3,31.75,SW,225,2.0,2.0,34,0.00,,,0.00,meteohub,2013-10-01 01:02:00,
2013-09-30 19:07:00,51.3,25.9,31.75,West,270,1.0,3.0,37,0.00,,,0.00,meteohub,2013-10-01 01:07:00,
2013-09-30 19:12:00,50.7,24.1,31.75,SW,225,3.0,3.0,35,0.00,,,0.00,meteohub,2013-10-01 01:12:00,
2013-09-30 19:17:00,50.4,24.4,31.75,SW,225,0.0,3.0,36,0.00,,,0.00,meteohub,2013-10-01 01:17:00,
2013-09-30 19:22:00,50.4,24.4,31.76,SW,225,3.0,3.0,36,0.00,,,0.00,meteohub,2013-10-01 01:22:00,
2013-09-30 19:27:00,50.4,25.7,31.76,NE,45,2.0,4.0,38,0.00,,,0.00,meteohub,2013-10-01 01:27:00,
2013-09-30 19:32:00,50.0,24.1,31.76,SW,225,1.0,4.0,36,0.00,,,0.00,meteohub,2013-10-01 01:32:00,
2013-09-30 19:37:00,49.6,25.0,31.76,SW,225,2.0,4.0,38,0.00,,,0.00,meteohub,2013-10-01 01:37:00,
2013-09-30 19:42:00,48.7,25.5,31.76,South,180,1.0,2.0,40,0.00,,,0.00,meteohub,2013-10-01 01:42:00,
2013-09-30 19:47:00,48.0,25.5,31.77,South,180,2.0,2.0,41,0.00,,,0.00,meteohub,2013-10-01 01:47:00,
2013-09-30 19:52:00,47.3,25.9,31.77,South,180,2.0,2.0,43,0.00,,,0.00,meteohub,2013-10-01 01:52:00,
2013-09-30 19:57:00,46.9,25.5,31.77,East,90,1.0,2.0,43,0.00,,,0.00,meteohub,2013-10-01 01:57:00,
2013-09-30 20:02:00,46.8,26.1,31.77,SW,225,2.0,2.0,44,0.00,,,0.00,meteohub,2013-10-01 02:02:00,
2013-09-30 20:07:00,46.8,26.1,31.77,SW,225,2.0,2.0,44,0.00,,,0.00,meteohub,2013-10-01 02:07:00,
2013-09-30 20:12:00,46.2,25.5,31.77,SW,225,2.0,2.0,44,0.00,,,0.00,meteohub,2013-10-01 02:12:00,
2013-09-30 20:17:00,45.9,25.2,31.77,South,180,2.0,2.0,44,0.00,,,0.00,meteohub,2013-10-01 02:17:00,
2013-09-30 20:23:00,45.7,25.0,31.77,South,180,2.0,2.0,44,0.00,,,0.00,meteohub,2013-10-01 02:23:00,
2013-09-30 20:28:00,45.5,24.8,31.78,South,180,2.0,2.0,44,0.00,,,0.00,meteohub,2013-10-01 02:28:00,
2013-09-30 20:33:00,45.3,25.2,31.78,South,180,2.0,2.0,45,0.00,,,0.00,meteohub,2013-10-01 02:33:00,
2013-09-30 20:38:00,45.7,25.5,31.78,SSW,203,2.0,2.0,45,0.00,,,0.00,meteohub,2013-10-01 02:38:00,
2013-09-30 20:43:00,45.7,25.5,31.78,South,180,2.0,2.0,45,0.00,,,0.00,meteohub,2013-10-01 02:43:00,
2013-09-30 20:48:00,45.5,25.3,31.78,North,0,2.0,3.0,45,0.00,,,0.00,meteohub,2013-10-01 02:48:00,
2013-09-30 20:54:00,45.7,25.5,31.78,South,180,2.0,3.0,45,0.00,,,0.00,meteohub,2013-10-01 02:54:00,
2013-09-30 20:59:00,45.3,25.2,31.78,SW,225,2.0,3.0,45,0.00,,,0.00,meteohub,2013-10-01 02:59:00,
2013-09-30 21:04:00,45.0,25.0,31.78,West,270,1.0,3.0,45,0.00,,,0.00,meteohub,2013-10-01 03:04:00,
2013-09-30 21:09:00,44.6,25.2,31.79,SW,225,2.0,2.0,46,0.00,,,0.00,meteohub,2013-10-01 03:09:00,
2013-09-30 21:14:00,44.1,25.2,31.79,West,270,2.0,2.0,47,0.00,,,0.00,meteohub,2013-10-01 03:14:00,
2013-09-30 21:20:00,43.7,25.3,31.79,West,270,2.0,2.0,48,0.00,,,0.00,meteohub,2013-10-01 03:20:00,
2013-09-30 21:25:00,43.5,25.2,31.79,SW,225,2.0,2.0,48,0.00,,,0.00,meteohub,2013-10-01 03:25:00,
2013-09-30 21:30:00,43.5,26.1,31.79,NW,315,2.0,2.0,50,0.00,,,0.00,meteohub,2013-10-01 03:30:00,
2013-09-30 21:35:00,43.9,26.4,31.80,West,270,2.0,4.0,50,0.00,,,0.00,meteohub,2013-10-01 03:35:00,
2013-09-30 21:40:00,44.4,26.4,31.80,West,270,2.0,4.0,49,0.00,,,0.00,meteohub,2013-10-01 03:40:00,
2013-09-30 21:45:00,44.8,26.2,31.80,West,270,2.0,4.0,48,0.00,,,0.00,meteohub,2013-10-01 03:45:00,
2013-09-30 21:51:00,44.6,26.1,31.80,West,270,0.0,4.0,48,0.00,,,0.00,meteohub,2013-10-01 03:51:00,
2013-09-30 21:56:00,44.4,26.4,31.80,SW,225,2.0,3.0,49,0.00,,,0.00,meteohub,2013-10-01 03:56:00,
2013-09-30 22:01:00,43.9,26.4,31.80,South,180,2.0,3.0,50,0.00,,,0.00,meteohub,2013-10-01 04:01:00,
2013-09-30 22:02:00,43.9,26.4,31.80,South,180,2.0,3.0,50,0.00,,,0.00,meteohub,2013-10-01 04:02:00,
2013-09-30 22:07:00,43.9,26.4,31.80,South,180,2.0,2.0,50,0.00,,,0.00,meteohub,2013-10-01 04:07:00,
2013-09-30 22:12:00,42.3,26.4,31.79,SW,225,2.0,2.0,53,0.00,,,0.00,meteohub,2013-10-01 04:12:00,
2013-09-30 22:17:00,41.7,25.9,31.80,SW,225,2.0,2.0,53,0.00,,,0.00,meteohub,2013-10-01 04:17:00,
2013-09-30 22:22:00,41.2,25.9,31.79,SW,225,2.0,3.0,54,0.00,,,0.00,meteohub,2013-10-01 04:22:00,
2013-09-30 22:27:00,40.8,26.4,31.80,West,270,3.0,3.0,56,0.00,,,0.00,meteohub,2013-10-01 04:27:00,
2013-09-30 22:33:00,41.0,26.1,31.80,NE,45,2.0,3.0,55,0.00,,,0.00,meteohub,2013-10-01 04:33:00,
2013-09-30 22:38:00,41.0,26.1,31.80,SW,225,2.0,3.0,55,0.00,,,0.00,meteohub,2013-10-01 04:38:00,
2013-09-30 22:43:00,41.0,26.1,31.80,SW,225,2.0,3.0,55,0.00,,,0.00,meteohub,2013-10-01 04:43:00,
2013-09-30 22:48:00,40.6,26.2,31.80,South,180,2.0,2.0,56,0.00,,,0.00,meteohub,2013-10-01 04:48:00,
2013-09-30 22:53:00,39.9,25.9,31.80,North,0,0.0,2.0,57,0.00,,,0.00,meteohub,2013-10-01 04:53:00,
2013-09-30 22:59:00,39.6,25.5,31.80,SW,225,2.0,2.0,57,0.00,,,0.00,meteohub,2013-10-01 04:59:00,
2013-09-30 23:04:00,39.2,25.7,31.80,SW,225,2.0,2.0,58,0.00,,,0.00,meteohub,2013-10-01 05:04:00,
2013-09-30 23:09:00,39.2,25.7,31.80,SW,225,1.0,2.0,58,0.00,,,0.00,meteohub,2013-10-01 05:09:00,
2013-09-30 23:15:00,39.0,26.2,31.80,SW,225,2.0,2.0,60,0.00,,,0.00,meteohub,2013-10-01 05:15:00,
2013-09-30 23:20:00,38.8,26.1,31.80,South,180,1.0,2.0,60,0.00,,,0.00,meteohub,2013-10-01 05:20:00,
2013-09-30 23:25:00,38.7,26.1,31.80,SW,225,2.0,2.0,60,0.00,,,0.00,meteohub,2013-10-01 05:25:00,
2013-09-30 23:30:00,38.3,26.1,31.80,SW,225,2.0,2.0,61,0.00,,,0.00,meteohub,2013-10-01 05:30:00,
2013-09-30 23:35:00,37.9,26.1,31.80,SW,225,1.0,2.0,62,0.00,,,0.00,meteohub,2013-10-01 05:35:00,
2013-09-30 23:41:00,37.8,25.9,31.80,SW,225,1.0,2.0,62,0.00,,,0.00,meteohub,2013-10-01 05:41:00,
2013-09-30 23:46:00,37.8,25.9,31.80,SW,225,0.0,2.0,62,0.00,,,0.00,meteohub,2013-10-01 05:46:00,
2013-09-30 23:51:00,37.8,25.9,31.80,West,270,2.0,2.0,62,0.00,,,0.00,meteohub,2013-10-01 05:51:00,
2013-09-30 23:56:00,37.6,25.7,31.81,SW,225,2.0,2.0,62,0.00,,,0.00,meteohub,2013-10-01 05:56:00,